Andrews, TX

6:33 AM CST on December 08, 2016 (GMT -0600)
Andrews

Weather History for KE11 - November, 2012

Change the Weather History Date:

Sunday, November 25, 2012

  Actual Average (KMAF) Record (KMAF)
Temperature  
Mean Temperature 60 °F 49 °F  
Max Temperature 76 °F 63 °F 85 °F (1965)
Min Temperature 44 °F 35 °F 18 °F (1938)
Degree Days  
Heating Degree Days 5 16  
Month to date heating degree days 285  
Since 1 July heating degree days 394  
Growing Degree Days 10 (Base 50)    
Moisture  
Dew Point 32 °F    
Average Humidity 42    
Maximum Humidity 73    
Minimum Humidity 16    
Precipitation  
Precipitation 0.00 in 0.02 in 0.63 in (1935)
Month to date precipitation 0.58  
Year to date precipitation 13.89  
Snow  
Snow - - - ()
Month to date snowfall  
Since 1 July snowfall  
Since 1 September snowfall  
Snow Depth -    
Sea Level Pressure  
Sea Level Pressure 29.94 in    
Wind  
Wind Speed 10 mph ()    
Max Wind Speed 16 mph    
Max Gust Speed 21 mph    
Visibility 10.0 miles    
Events      
T = Trace of Precipitation, MM = Missing Value Source: Averaged Metar Reports

Daily Weather History Graph

Daily Weather History Graph

Search for Another Location

Airport or City:

Trip Planner

Search our weather history database for the weather conditions in past years. The results will help you decide how hot, cold, wet, or windy it might be!

Date:

Astronomy

Nov. 25, 2012 Rise Set
Actual Time 7:28 AM CST 5:45 PM CST
Civil Twilight 7:02 AM CST 6:12 PM CST
Nautical Twilight 6:32 AM CST 6:42 PM CST
Astronomical Twilight 6:02 AM CST 7:11 PM CST
Moon 3:58 PM CST (11/25) 4:51 AM CST (11/25)
Length of Visible Light 11h 09m
Length of Day
10h 16m
Waxing Gibbous, 93% of the Moon is Illuminated
Nov 25
Waxing Gibbous
Nov 28
Full
Dec 6
Last Quarter
Dec 13
New
Dec 19
First Quarter

Hourly Weather History & Observations

Time (CST) Temp. Windchill Dew Point Humidity Pressure Visibility Wind Dir Wind Speed Gust Speed Precip Events Conditions
12:15 AM 48.2 °F - 32.2 °F 54% 30.03 in 10.0 mi SSW 13.8 mph 19.6 mph N/A   Clear
12:35 AM 47.7 °F - 32.0 °F 55% 30.03 in 10.0 mi SSW 12.7 mph - N/A   Clear
12:55 AM 47.3 °F - 32.0 °F 55% 30.02 in 10.0 mi SSW 12.7 mph - N/A   Clear
1:15 AM 47.5 °F - 32.0 °F 55% 30.02 in 10.0 mi SSW 13.8 mph - N/A   Clear
1:35 AM 47.3 °F - 32.0 °F 55% 30.01 in 10.0 mi SW 12.7 mph - N/A   Clear
1:55 AM 46.8 °F - 32.0 °F 57% 30.01 in 10.0 mi SW 12.7 mph - N/A   Clear
2:15 AM 46.6 °F - 32.0 °F 57% 30.00 in 10.0 mi SW 12.7 mph - N/A   Clear
2:35 AM 46.4 °F 40.7 °F 32.5 °F 59% 29.99 in 10.0 mi SW 12.7 mph - N/A   Clear
2:55 AM 46.0 °F 40.2 °F 33.3 °F 61% 29.99 in 10.0 mi SW 12.7 mph - N/A   Clear
3:15 AM 45.9 °F 40.0 °F 33.8 °F 63% 29.99 in 10.0 mi SW 12.7 mph - N/A   Clear
3:35 AM 45.7 °F 39.8 °F 34.0 °F 64% 29.98 in 10.0 mi SW 12.7 mph - N/A   Clear
3:55 AM 45.0 °F 39.7 °F 34.3 °F 66% 29.98 in 10.0 mi SW 10.4 mph - N/A   Clear
4:15 AM 44.6 °F 38.8 °F 34.7 °F 68% 29.98 in 10.0 mi SW 11.5 mph - N/A   Clear
4:35 AM 44.4 °F 38.6 °F 35.2 °F 70% 29.98 in 10.0 mi SW 11.5 mph - N/A   Clear
4:55 AM 44.1 °F 39.0 °F 35.6 °F 72% 29.97 in 10.0 mi WSW 9.2 mph - N/A   Clear
5:15 AM 44.2 °F 39.7 °F 35.8 °F 72% 29.97 in 10.0 mi WSW 8.1 mph - N/A   Clear
5:35 AM 44.2 °F 39.7 °F 36.1 °F 73% 29.97 in 10.0 mi WSW 8.1 mph - N/A   Clear
5:55 AM 46.0 °F 41.4 °F 36.9 °F 70% 29.97 in 10.0 mi WSW 9.2 mph - N/A   Clear
6:15 AM 46.4 °F 41.5 °F 37.2 °F 70% 29.97 in 10.0 mi WSW 10.4 mph - N/A   Clear
6:35 AM 47.5 °F - 37.8 °F 69% 29.97 in 10.0 mi WSW 11.5 mph - N/A   Clear
6:55 AM 48.2 °F - 37.9 °F 68% 29.98 in 10.0 mi WSW 10.4 mph - N/A   Clear
7:15 AM 47.8 °F - 38.1 °F 69% 29.98 in 10.0 mi WSW 12.7 mph 16.1 mph N/A   Clear
7:35 AM 47.7 °F - 37.9 °F 69% 29.98 in 10.0 mi West 10.4 mph - N/A   Clear
7:55 AM 47.7 °F - 37.8 °F 69% 29.98 in 10.0 mi West 9.2 mph - N/A   Clear
8:15 AM 48.4 °F - 37.8 °F 67% 29.98 in 10.0 mi West 11.5 mph - N/A   Clear
8:35 AM 50.5 °F - 38.3 °F 63% 29.98 in 10.0 mi West 10.4 mph - N/A   Clear
8:55 AM 52.9 °F - 38.7 °F 58% 29.99 in 10.0 mi WSW 11.5 mph - N/A   Clear
9:15 AM 55.2 °F - 38.8 °F 54% 29.99 in 10.0 mi WSW 10.4 mph - N/A   Clear
9:55 AM 59.7 °F - 38.3 °F 45% 30.00 in 10.0 mi West 11.5 mph - N/A   Clear
10:15 AM 61.7 °F - 37.9 °F 41% 30.00 in 10.0 mi West 12.7 mph - N/A   Clear
10:35 AM 63.3 °F - 37.8 °F 39% 29.99 in 10.0 mi West 12.7 mph - N/A   Clear
10:55 AM 64.4 °F - 37.6 °F 37% 29.99 in 10.0 mi West 12.7 mph 18.4 mph N/A   Clear
11:15 AM 66.6 °F - 37.4 °F 34% 29.98 in 10.0 mi WSW 12.7 mph 17.3 mph N/A   Clear
11:35 AM 68.2 °F - 36.7 °F 31% 29.98 in 10.0 mi West 11.5 mph 19.6 mph N/A   Clear
11:55 AM 69.1 °F - 36.3 °F 30% 29.97 in 10.0 mi WSW 13.8 mph 18.4 mph N/A   Clear
12:15 PM 70.2 °F - 35.1 °F 28% 29.96 in 10.0 mi West 11.5 mph 19.6 mph N/A   Clear
12:35 PM 71.1 °F - 34.7 °F 26% 29.95 in 10.0 mi West 10.4 mph - N/A   Clear
12:55 PM 71.8 °F - 34.3 °F 25% 29.93 in 10.0 mi West 10.4 mph 17.3 mph N/A   Clear
1:15 PM 72.7 °F - 34.2 °F 24% 29.92 in 10.0 mi West 12.7 mph - N/A   Clear
1:35 PM 72.7 °F - 34.7 °F 25% 29.91 in 10.0 mi WSW 16.1 mph 20.7 mph N/A   Clear
1:55 PM 73.6 °F - 35.4 °F 25% 29.91 in 10.0 mi WSW 12.7 mph 19.6 mph N/A   Clear
2:15 PM 74.5 °F - 34.7 °F 23% 29.90 in 10.0 mi WSW 13.8 mph - N/A   Clear
2:35 PM 75.0 °F - 34.0 °F 22% 29.89 in 10.0 mi WSW 11.5 mph 17.3 mph N/A   Clear
2:55 PM 75.0 °F - 33.3 °F 22% 29.89 in 10.0 mi WSW 10.4 mph - N/A   Clear
3:15 PM 75.2 °F - 32.0 °F 21% 29.89 in 10.0 mi West 9.2 mph 20.7 mph N/A   Clear
3:35 PM 76.3 °F - 31.1 °F 19% 29.88 in 10.0 mi WSW 11.5 mph 18.4 mph N/A   Clear
3:55 PM 76.1 °F - 30.2 °F 19% 29.87 in 10.0 mi WSW 11.5 mph - N/A   Clear
4:15 PM 76.1 °F - 28.8 °F 18% 29.87 in 10.0 mi West 9.2 mph - N/A   Clear
4:35 PM 76.1 °F - 26.4 °F 16% 29.87 in 10.0 mi WNW 11.5 mph 16.1 mph N/A   Clear
4:55 PM 75.2 °F - 26.6 °F 17% 29.87 in 10.0 mi WNW 10.4 mph - N/A   Clear
5:15 PM 73.8 °F - 26.2 °F 17% 29.87 in 10.0 mi WNW 6.9 mph - N/A   Clear
5:35 PM 72.0 °F - 25.3 °F 18% 29.87 in 10.0 mi West 5.8 mph - N/A   Clear
5:55 PM 69.3 °F - 25.3 °F 19% 29.87 in 10.0 mi West 4.6 mph - N/A   Clear
6:15 PM 67.1 °F - 25.9 °F 21% 29.87 in 10.0 mi West 3.5 mph - N/A   Clear
6:35 PM 64.9 °F - 26.6 °F 24% 29.87 in 10.0 mi West 3.5 mph - N/A   Clear
6:55 PM 61.9 °F - 27.3 °F 27% 29.88 in 10.0 mi West 3.5 mph - N/A   Clear
7:15 PM 60.3 °F - 27.7 °F 29% 29.89 in 10.0 mi West 4.6 mph - N/A   Clear
7:35 PM 57.0 °F - 27.1 °F 32% 29.89 in 10.0 mi WSW 3.5 mph - N/A   Clear
7:55 PM 58.3 °F - 25.9 °F 29% 29.90 in 10.0 mi SW 6.9 mph - N/A   Clear
8:15 PM 56.7 °F - 25.3 °F 30% 29.90 in 10.0 mi SW 8.1 mph - N/A   Clear
8:35 PM 56.5 °F - 24.8 °F 30% 29.91 in 10.0 mi SW 9.2 mph - N/A   Clear
8:55 PM 58.8 °F - 25.9 °F 28% 29.91 in 10.0 mi WSW 8.1 mph - N/A   Clear
9:15 PM 58.1 °F - 26.4 °F 30% 29.91 in 10.0 mi WSW 8.1 mph - N/A   Clear
9:35 PM 57.6 °F - 26.6 °F 31% 29.91 in 10.0 mi WSW 8.1 mph - N/A   Clear
9:55 PM 57.2 °F - 27.3 °F 32% 29.91 in 10.0 mi West 10.4 mph - N/A   Clear
10:15 PM 57.4 °F - 27.9 °F 32% 29.91 in 10.0 mi WSW 8.1 mph - N/A   Clear
10:35 PM 58.6 °F - 29.1 °F 33% 29.91 in 10.0 mi WSW 8.1 mph - N/A   Clear
10:55 PM 59.7 °F - 29.7 °F 32% 29.91 in 10.0 mi WSW 9.2 mph - N/A   Clear
11:15 PM 58.1 °F - 29.3 °F 33% 29.91 in 10.0 mi West 10.4 mph - N/A   Clear
11:35 PM 57.6 °F - 29.3 °F 34% 29.91 in 10.0 mi West 10.4 mph - N/A   Clear
11:55 PM 57.9 °F - 29.3 °F 34% 29.91 in 10.0 mi West 10.4 mph 17.3 mph N/A   Clear